Location: Dreilärchen
(47.9312°N, 8.6113°E)
Time: 02:19:38
(UTC+00:00)

USA 308 - Pass Details

Date: 26 May 2022
Orbit: 549 x 558 km, 54.0° (Epoch: 14 June)

Event Time Altitude Azimuth Distance (km) Brightness Sun altitude
Exits shadow 02:16:37 - 268° (W) 2,231 5.5 -10.7°
Reaches altitude 10° 02:17:39 10° 272° (W) 1,844 5.1 -10.6°
Maximum altitude 02:21:39 43° 345° (NNW) 789 3.9 -10.2°
Drops below altitude 10° 02:25:42 10° 58° (ENE) 1,854 6.9 -9.7°
Sets 02:28:02 0° 65° (ENE) 2,752 7.8 -9.4°
